| time (UTC) | temp F | wind direction | speed MPH | gust MPH | rain 1hr in | rain 24hr in | rain mn in | humidity % | barometer mb |
| 20260505214549 | 71 | 288 | 2.0 | 10.0 | 0.00 | 0.01 | 0.00 | 55 | 1005.7 |
| 20260505213006 | 71 | 238 | 3.0 | 13.0 | 0.00 | 0.01 | 0.00 | 55 | 1005.6 |
| 20260505211540 | 70 | 225 | 2.0 | 14.0 | 0.00 | 0.01 | 0.00 | 56 | 1005.6 |
| 20260505210002 | 70 | 267 | 2.0 | 8.0 | 0.00 | 0.01 | 0.00 | 56 | 1005.6 |
| 20260505204511 | 71 | 199 | 1.0 | 8.0 | 0.00 | 0.01 | 0.00 | 55 | 1005.6 |
| 20260505203008 | 71 | 229 | 2.0 | 9.0 | 0.00 | 0.01 | 0.00 | 57 | 1005.5 |
| 20260505201544 | 70 | 236 | 2.0 | 5.0 | 0.00 | 0.01 | 0.00 | 56 | 1005.7 |
| 20260505200001 | 70 | 210 | 1.0 | 7.0 | 0.00 | 0.01 | 0.00 | 56 | 1005.9 |
| 20260505194539 | 70 | 231 | 0.0 | 5.0 | 0.00 | 0.01 | 0.00 | 57 | 1006.1 |
| 20260505193001 | 70 | 293 | 2.0 | 7.0 | 0.00 | 0.01 | 0.00 | 55 | 1006.3 |
| 20260505191541 | 70 | 41 | 1.0 | 7.0 | 0.00 | 0.01 | 0.00 | 55 | 1006.4 |
| 20260505190006 | 70 | 284 | 3.0 | 9.0 | 0.00 | 0.01 | 0.00 | 54 | 1006.2 |
| 20260505184544 | 71 | 208 | 4.0 | 13.0 | 0.00 | 0.01 | 0.00 | 52 | 1006.3 |
| 20260505183007 | 72 | 186 | 4.0 | 16.0 | 0.00 | 0.01 | 0.00 | 52 | 1006.3 |
| 20260505181551 | 71 | 215 | 4.0 | 10.0 | 0.00 | 0.01 | 0.00 | 52 | 1006.3 |
| 20260505180015 | 69 | 325 | 4.0 | 11.0 | 0.00 | 0.01 | 0.00 | 58 | 1006.7 |
| 20260505174555 | 69 | 229 | 5.0 | 15.0 | 0.00 | 0.01 | 0.00 | 55 | 1006.6 |
| 20260505173020 | 70 | 190 | 4.0 | 12.0 | 0.00 | 0.01 | 0.00 | 55 | 1006.3 |
| 20260505171601 | 71 | 69 | 4.0 | 8.0 | 0.00 | 0.01 | 0.00 | 53 | 1005.8 |
| 20260505170024 | 72 | 298 | 3.0 | 10.0 | 0.00 | 0.01 | 0.00 | 54 | 1005.5 |
| 20260505164622 | 71 | 292 | 3.0 | 14.0 | 0.00 | 0.01 | 0.00 | 54 | 1005.7 |
| 20260505163021 | 72 | 201 | 3.0 | 7.0 | 0.00 | 0.01 | 0.00 | 57 | 1005.9 |
| 20260505161613 | 69 | 247 | 2.0 | 7.0 | 0.00 | 0.01 | 0.00 | 60 | 1006.2 |
| 20260505153018 | 69 | 211 | 3.0 | 11.0 | 0.00 | 0.01 | 0.00 | 59 | 1006.3 |
| 20260505151554 | 69 | 228 | 4.0 | 9.0 | 0.00 | 0.01 | 0.00 | 59 | 1006.2 |
| 20260505124602 | 65 | 129 | 3.0 | 9.0 | 0.00 | 0.01 | 0.00 | 65 | 1006.5 |
| 20260505123051 | 65 | 225 | 3.0 | 7.0 | 0.00 | 0.01 | 0.00 | 67 | 1006.6 |
| 20260505121521 | 63 | 162 | 2.0 | 8.0 | 0.00 | 0.01 | 0.00 | 67 | 1006.7 |
| 20260505120109 | 64 | 195 | 3.0 | 8.0 | 0.00 | 0.01 | 0.00 | 67 | 1006.5 |
| 20260505114603 | 63 | 242 | 2.0 | 6.0 | 0.00 | 0.01 | 0.00 | 68 | 1006.6 |
| 20260505113028 | 63 | 205 | 2.0 | 7.0 | 0.00 | 0.01 | 0.00 | 69 | 1006.6 |
| 20260505111558 | 62 | 234 | 3.0 | 9.0 | 0.00 | 0.01 | 0.00 | 69 | 1006.4 |
| 20260505101553 | 62 | 236 | 3.0 | 7.0 | 0.00 | 0.01 | 0.00 | 69 | 1005.8 |
| 20260505100029 | 62 | 254 | 2.0 | 10.0 | 0.00 | 0.01 | 0.00 | 70 | 1005.7 |
| 20260505094600 | 62 | 217 | 1.0 | 6.0 | 0.00 | 0.01 | 0.00 | 71 | 1005.5 |
| 20260505093024 | 62 | 214 | 1.0 | 5.0 | 0.00 | 0.01 | 0.00 | 72 | 1005.5 |
| 20260505091557 | 62 | 251 | 2.0 | 5.0 | 0.00 | 0.01 | 0.00 | 72 | 1005.3 |
| 20260505090031 | 61 | 236 | 3.0 | 9.0 | 0.00 | 0.01 | 0.00 | 73 | 1005.4 |
| 20260505084615 | 61 | 251 | 2.0 | 6.0 | 0.00 | 0.01 | 0.00 | 73 | 1005.4 |
| 20260505083108 | 61 | 181 | 2.0 | 6.0 | 0.00 | 0.01 | 0.00 | 73 | 1005.3 |
| 20260505081620 | 61 | 273 | 0.0 | 6.0 | 0.00 | 0.01 | 0.00 | 73 | 1005.2 |
| 20260505080008 | 61 | 227 | 2.0 | 8.0 | 0.00 | 0.01 | 0.00 | 72 | 1005.2 |
| 20260505074535 | 62 | 298 | 3.0 | 7.0 | 0.00 | 0.01 | 0.00 | 71 | 1005.0 |
| 20260505073106 | 62 | 259 | 1.0 | 7.0 | 0.00 | 0.01 | 0.00 | 70 | 1005.0 |
| 20260505071545 | 63 | 148 | 2.0 | 7.0 | 0.00 | 0.01 | 0.00 | 68 | 1004.9 |
| 20260505070113 | 63 | 252 | 3.0 | 8.0 | 0.00 | 0.01 | 0.00 | 68 | 1004.8 |
| 20260505064524 | 62 | 277 | 1.0 | 6.0 | 0.00 | 0.01 | 0.00 | 70 | 1005.0 |
| 20260505063053 | 62 | 240 | 2.0 | 8.0 | 0.00 | 0.01 | 0.00 | 71 | 1005.1 |
| 20260505061523 | 63 | 227 | 1.0 | 4.0 | 0.00 | 0.01 | 0.00 | 68 | 1005.1 |
| 20260505060058 | 63 | 261 | 1.0 | 5.0 | 0.00 | 0.01 | 0.00 | 67 | 1005.4 |
| 20260505054546 | 63 | 172 | 0.0 | 6.0 | 0.00 | 0.01 | 0.00 | 67 | 1005.5 |
| 20260505053107 | 62 | 233 | 1.0 | 7.0 | 0.00 | 0.01 | 0.00 | 67 | 1005.5 |
| 20260505051536 | 62 | 191 | 2.0 | 6.0 | 0.00 | 0.01 | 0.00 | 67 | 1005.7 |
| 20260505050108 | 62 | 261 | 1.0 | 5.0 | 0.00 | 0.01 | 0.00 | 68 | 1005.8 |
| 20260505041527 | 61 | 167 | 0.0 | 4.0 | 0.00 | 0.01 | 0.00 | 69 | 1005.9 |
| 20260505040107 | 61 | 247 | 0.0 | 3.0 | 0.00 | 0.01 | 0.00 | 68 | 1005.9 |
| 20260505034523 | 62 | 251 | 0.0 | 6.0 | 0.00 | 0.01 | 0.01 | 67 | 1005.9 |
| 20260505033018 | 62 | 257 | 0.0 | 3.0 | 0.00 | 0.01 | 0.01 | 67 | 1005.9 |
| 20260505031544 | 62 | 192 | 0.0 | 3.0 | 0.00 | 0.01 | 0.01 | 66 | 1006.2 |
| 20260505030024 | 63 | 223 | 0.0 | 5.0 | 0.00 | 0.01 | 0.01 | 65 | 1006.2 |
| 20260505024553 | 64 | 247 | 0.0 | 3.0 | 0.00 | 0.01 | 0.01 | 65 | 1006.2 |
| 20260505023026 | 64 | 245 | 1.0 | 4.0 | 0.00 | 0.01 | 0.01 | 64 | 1006.3 |
| 20260505021549 | 64 | 247 | 1.0 | 6.0 | 0.00 | 0.01 | 0.01 | 63 | 1006.3 |
| 20260505020013 | 65 | 236 | 1.0 | 4.0 | 0.00 | 0.01 | 0.01 | 63 | 1006.4 |
| 20260505014530 | 65 | 225 | 2.0 | 4.0 | 0.00 | 0.01 | 0.01 | 62 | 1006.3 |
| 20260505013105 | 65 | 155 | 2.0 | 7.0 | 0.00 | 0.01 | 0.01 | 62 | 1006.1 |
| 20260505011529 | 65 | 262 | 1.0 | 5.0 | 0.00 | 0.01 | 0.01 | 62 | 1005.8 |
| 20260505010106 | 65 | 186 | 2.0 | 7.0 | 0.00 | 0.01 | 0.01 | 62 | 1005.7 |
| 20260505004520 | 65 | 224 | 2.0 | 8.0 | 0.00 | 0.01 | 0.01 | 63 | 1005.5 |
| 20260505003050 | 65 | 211 | 1.0 | 4.0 | 0.00 | 0.01 | 0.01 | 64 | 1005.3 |
| 20260505001506 | 65 | 271 | 1.0 | 7.0 | 0.01 | 0.01 | 0.01 | 65 | 1005.2 |
| 20260505000049 | 65 | 275 | 0.0 | 5.0 | 0.01 | 0.01 | 0.01 | 68 | 1005.1 |
| 20260504234506 | 65 | 198 | 0.0 | 4.0 | 0.01 | 0.01 | 0.01 | 68 | 1005.1 |
| 20260504233044 | 66 | 243 | 0.0 | 5.0 | 0.01 | 0.01 | 0.01 | 66 | 1005.4 |
| 20260504231506 | 67 | 268 | 1.0 | 7.0 | 0.00 | 0.00 | 0.00 | 62 | 1005.6 |
| 20260504230038 | 68 | 243 | 1.0 | 8.0 | 0.00 | 0.00 | 0.00 | 58 | 1005.6 |
| 20260504224505 | 69 | 278 | 2.0 | 8.0 | 0.00 | 0.00 | 0.00 | 58 | 1005.7 |
| 20260504223050 | 69 | 340 | 3.0 | 8.0 | 0.00 | 0.00 | 0.00 | 53 | 1005.7 |
| 20260504221521 | 70 | 238 | 3.0 | 9.0 | 0.00 | 0.00 | 0.00 | 51 | 1005.6 |